Location: Aula-Vintri
(58.3875°N, 22.4322°E)
Time: 01:24:42
(UTC+00:00)

Meteor 2-3 Rocket - Pass Details

Date: 13 October 2019
Orbit: 843 x 884 km, 81.2° (Epoch: 21 November)

Event Time Altitude Azimuth Distance (km) Brightness Sun altitude
Rises 18:36:48 0° 344° (NNW) 3,456 7.5 -24.5°
Reaches altitude 10° 18:39:22 10° 351° (N) 2,521 6.6 -24.8°
Enters shadow 18:44:34 44° 55° (NE) 1,191 4.2 -25.4°
